Location: Bill Sadowski Park
(25.6087°N, 80.3181°W)
Time: 02:12:59
(UTC-04:00)

Amateur Radio Satellites - All Passes

Search period start: 24 October 2017 01:42
Search period end: 25 October 2017 01:42
Location: Bill Sadowski Park, 25.6087°N, 80.3181°W

Satellite Date Start Highest point End Downlink Frequencies (MHz)
Time Altitude Azimuth
EO-79 24 Oct 01:49:12 01:52:53 29° 286° (WNW) 01:56:33 145.935-145.965
DX 1 24 Oct 01:49:14 01:53:01 31° 73° (ENE) 01:56:49 434.975-435.025
POLYITAN 1 24 Oct 01:55:16 01:58:45 25° 287° (WNW) 02:02:12 437.675
UKube-1 24 Oct 02:04:53 02:08:33 28° 73° (ENE) 02:12:14 .
BUGSAT 1 24 Oct 02:14:19 02:18:30 84° 100° (E) 02:22:37 437.445
NANOSAT C BR1 24 Oct 02:15:37 02:18:15 16° 289° (WNW) 02:20:53 145.865
Gurwin Techsat 1B 24 Oct 02:17:10 02:21:26 24° 98° (E) 02:25:40 435.225
QB50P2 24 Oct 02:17:26 02:19:11 12° 290° (WNW) 02:20:56 145.880/145.840
JUGNU 24 Oct 02:18:39 02:21:32 14° 159° (SSE) 02:24:25 437.505
DUCHIFAT 1 24 Oct 02:24:16 02:26:38 15° 289° (WNW) 02:29:00 145.980
50 SAT 24 Oct 02:30:43 02:33:47 41° 260° (W) 02:36:53 437.505
VELOX 1 24 Oct 02:33:50 02:35:58 13° 264° (W) 02:38:07 145.980
M-CUBED/EXP-1 PRIME 24 Oct 02:39:58 02:43:35 37° 105° (ESE) 02:47:27 437.505
NO-84 24 Oct 02:50:39 02:53:31 17° 316° (NW) 02:56:23 435.350 FM
Oscar 19 24 Oct 02:52:09 02:57:17 88° 282° (WNW) 03:02:25 437.125/150
AO-7 24 Oct 03:09:17 03:11:33 11° 96° (E) 03:13:50 .
ITUPSAT 1 24 Oct 03:11:06 03:14:25 19° 70° (ENE) 03:17:43 437.325
BEESAT 24 Oct 03:23:05 03:27:02 26° 72° (ENE) 03:31:01 436.000
DX 1 24 Oct 03:26:49 03:29:09 14° 264° (W) 03:31:29 434.975-435.025
RS-15 24 Oct 03:37:21 03:42:08 13° 322° (NW) 03:46:56 29.354- 29.394
MOZHAYETS 4 24 Oct 03:39:06 03:43:32 46° 75° (ENE) 03:47:57
UKube-1 24 Oct 03:41:57 03:44:30 15° 264° (W) 03:47:02 .
Gurwin Techsat 1B 24 Oct 03:56:45 04:01:13 28° 289° (WNW) 04:05:42 435.225
CUBESAT XI-V 24 Oct 04:03:10 04:05:48 15° 71° (ENE) 04:08:27 437.345
JUGNU 24 Oct 04:05:01 04:10:09 30° 166° (SSE) 04:15:16 437.505
M-CUBED/EXP-1 PRIME 24 Oct 04:16:49 04:17:42 11° 292° (WNW) 04:18:35 437.505
ITUPSAT 1 24 Oct 04:47:43 04:51:55 30° 261° (W) 04:56:09 437.325
SRMSAT 24 Oct 04:51:11 04:52:25 11° 158° (SSE) 04:53:38 437.500
AO-7 24 Oct 04:56:30 05:04:51 88° 107° (ESE) 05:13:12 .
BEESAT 24 Oct 05:01:04 05:04:40 21° 263° (W) 05:08:16 436.000
ITAMSAT 1 24 Oct 05:12:56 05:18:08 66° 285° (WNW) 05:23:17 435.822/435.867
MOZHAYETS 4 24 Oct 05:19:39 05:20:46 11° 265° (W) 05:21:52
CUBESAT XI-V 24 Oct 05:38:37 05:42:49 34° 261° (W) 05:47:01 437.345
SO-50 24 Oct 05:42:49 05:47:11 55° 113° (ESE) 05:51:33 436.795
O/OREOS (USA 219) 24 Oct 05:50:59 05:52:38 12° 64° (ENE) 05:54:16 437.305
JUGNU 24 Oct 05:53:12 05:58:52 46° 175° (S) 06:04:30 437.505
DOVE 4 24 Oct 05:55:56 06:00:52 42° 99° (E) 06:05:51 437.250
KKS-1 24 Oct 06:12:43 06:17:02 53° 259° (W) 06:21:22 437.445
STARS 24 Oct 06:33:19 06:37:41 87° 259° (WSW) 06:42:06 437.465
SRMSAT 24 Oct 06:36:19 06:41:09 26° 164° (SSE) 06:45:59 437.500
KAITUO 1B 24 Oct 06:41:20 06:43:21 14° 96° (E) 06:45:23 145.475/437.950
NUDT-PHONESAT 24 Oct 06:48:01 06:50:25 17° 97° (E) 06:52:49 437.300
XW-2F 24 Oct 06:49:30 06:52:37 25° 98° (E) 06:55:45 145.980 - 146.000
AO-7 24 Oct 06:52:30 06:56:32 15° 301° (WNW) 07:00:34 .
PCSat 24 Oct 06:58:28 07:03:14 32° 108° (ESE) 07:08:01 145.827
LilacSat-2 24 Oct 07:03:22 07:07:02 50° 100° (E) 07:10:41 437.200
XW-2D 24 Oct 07:04:54 07:08:33 50° 100° (E) 07:12:11 145.860 - 145.880
XW-2B 24 Oct 07:18:26 07:22:09 79° 101° (E) 07:25:53 145.730 - 145.750
SO-50 24 Oct 07:27:02 07:27:53 10° 306° (NW) 07:28:45 436.795
ISS 24 Oct 07:27:05 07:29:38 22° 126° (SE) 07:32:13 437.550
O/OREOS (USA 219) 24 Oct 07:27:50 07:32:10 43° 256° (WSW) 07:36:28 437.305
DOVE 4 24 Oct 07:34:54 07:38:08 17° 289° (WNW) 07:41:23 437.250
JUGNU 24 Oct 07:42:01 07:47:40 47° 185° (S) 07:53:16 437.505
XW-2C 24 Oct 07:42:06 07:45:38 42° 284° (WNW) 07:49:10 145.795 - 145.815
CUTE-I 24 Oct 07:52:05 07:57:24 66° 285° (WNW) 08:02:43 437.470
HO-68 24 Oct 08:01:17 08:08:14 50° 102° (ESE) 08:15:08 435.675
STRAND 1 24 Oct 08:10:44 08:15:51 83° 77° (ENE) 08:21:00 437.568
KAITUO 1B 24 Oct 08:14:23 08:17:13 21° 286° (WNW) 08:20:02 145.475/437.950
RS-15 24 Oct 08:18:22 08:25:10 17° 42° (NE) 08:31:45 29.354- 29.394
nSIGHT-1 24 Oct 08:18:50 08:21:56 49° 313° (NW) 08:25:02 .
NUDT-PHONESAT 24 Oct 08:21:36 08:24:05 18° 287° (WNW) 08:26:34 437.300
SRMSAT 24 Oct 08:24:24 08:29:59 44° 173° (S) 08:35:35 437.500
XW-2F 24 Oct 08:24:54 08:26:25 12° 288° (WNW) 08:27:56 145.980 - 146.000
SEEDS 24 Oct 08:29:02 08:33:09 60° 100° (E) 08:37:17 437.485
CUTE 1.7 + AOD 2 24 Oct 08:30:21 08:34:31 71° 283° (WNW) 08:38:43 437.475
ZACube-1 24 Oct 08:37:40 08:40:13 16° 95° (E) 08:42:45 437.345
CUBEBUG 2 24 Oct 08:39:29 08:44:00 76° 102° (ESE) 08:48:19 437.445
AAUSAT CUBESAT 2 24 Oct 08:40:06 08:43:45 30° 98° (E) 08:47:23 437.432
PCSat 24 Oct 08:42:20 08:46:33 23° 300° (WNW) 08:50:48 145.827
XW-2A 24 Oct 08:46:47 08:50:02 53° 100° (E) 08:53:16 145.665 - 145.685
YUBILEINY 24 Oct 09:00:22 09:08:14 40° 88° (E) 09:16:05 435.215
ISS 24 Oct 09:03:41 09:06:01 18° 318° (NW) 09:08:22 437.550
Oscar 11 24 Oct 09:06:01 09:09:16 21° 97° (E) 09:12:30 .
UWE-3 24 Oct 09:08:27 09:12:50 88° 287° (WNW) 09:17:04 435.000/436.395/437.385
JUGNU 24 Oct 09:31:17 09:36:22 31° 194° (SSW) 09:41:26 437.505
TIGRISAT 24 Oct 09:34:39 09:36:52 13° 70° (ENE) 09:39:07 435.000
FO-29 24 Oct 09:39:30 09:44:41 87° 72° (ENE) 09:50:11 435.910
AO-73 24 Oct 09:47:30 09:51:42 66° 283° (WNW) 09:55:49 145.935
HO-68 24 Oct 09:50:07 09:55:27 23° 294° (WNW) 10:00:47 435.675
ZACube-1 24 Oct 10:12:52 10:16:26 26° 287° (WNW) 10:19:56 437.345
SRMSAT 24 Oct 10:13:15 10:18:55 49° 183° (S) 10:24:37 437.500
AAUSAT CUBESAT 2 24 Oct 10:16:47 10:18:51 14° 289° (WNW) 10:20:56 437.432
RS-15 24 Oct 10:27:59 10:39:43 77° 64° (ENE) 10:50:47 29.354- 29.394
BEESAT 3 24 Oct 10:34:23 10:37:47 28° 111° (ESE) 10:41:14 437.485
PRISM 24 Oct 10:39:22 10:42:58 32° 74° (ENE) 10:46:34 437.425
EO-88 24 Oct 10:40:41 10:43:43 25° 98° (E) 10:46:45 145.990 - 145.960
Oscar 11 24 Oct 10:41:59 10:45:12 21° 287° (WNW) 10:48:25 .
UNISAT 6 24 Oct 10:55:02 10:59:34 54° 260° (W) 11:04:09 437.425
YUBILEINY 24 Oct 10:57:24 11:04:52 32° 282° (WNW) 11:12:25 435.215
Max Valier Satellite 24 Oct 11:00:13 11:03:51 83° 101° (E) 11:07:29 145.860
DELFI C3 24 Oct 11:01:42 11:05:37 63° 283° (WNW) 11:09:33 145.870
NO-84 24 Oct 11:06:55 11:10:29 61° 235° (SW) 11:13:45 435.350 FM
AIST 2D 24 Oct 11:08:27 11:09:57 12° 72° (ENE) 11:11:27 435.315
TIGRISAT 24 Oct 11:08:46 11:13:06 40° 261° (W) 11:17:31 435.000
JUGNU 24 Oct 11:22:04 11:24:56 14° 201° (SSW) 11:27:49 437.505
ESTCUBE 1 24 Oct 11:48:30 11:51:11 16° 96° (E) 11:53:50 437.505/2401.250
SRMSAT 24 Oct 12:02:30 12:07:50 35° 192° (SSW) 12:13:10 437.500
BEESAT 2 24 Oct 12:05:07 12:09:04 76° 297° (WNW) 12:13:05 435.950
BEESAT 3 24 Oct 12:12:56 12:15:18 15° 303° (WNW) 12:17:41 437.485
EO-88 24 Oct 12:15:48 12:17:03 11° 288° (WNW) 12:18:17 145.990 - 145.960
PRISM 24 Oct 12:16:46 12:18:13 12° 264° (W) 12:19:40 437.425
EO-79 24 Oct 12:32:23 12:36:35 65° 77° (ENE) 12:40:49 145.935-145.965
POLYITAN 1 24 Oct 12:38:22 12:42:38 78° 76° (ENE) 12:46:55 437.675
AIST 2D 24 Oct 12:40:05 12:42:50 22° 263° (W) 12:45:36 435.315
RS-15 24 Oct 12:43:24 12:50:44 20° 258° (WSW) 12:57:55 29.354- 29.394
AO-85 24 Oct 12:45:01 12:48:41 40° 298° (WNW) 12:52:23 145.980
LO-87 24 Oct 12:48:44 12:52:07 40° 284° (WNW) 12:55:30 145.935 - 145.965
VELOX 1 24 Oct 12:55:12 12:57:12 13° 96° (E) 12:59:12 145.980
BUGSAT 1 24 Oct 12:56:32 12:59:30 19° 72° (ENE) 13:02:29 437.445
NANOSAT C BR1 24 Oct 12:57:31 13:01:44 66° 259° (W) 13:05:58 145.865
QB50P2 24 Oct 12:59:12 13:03:18 47° 260° (W) 13:07:26 145.880/145.840
DUCHIFAT 1 24 Oct 13:05:40 13:09:50 60° 259° (W) 13:14:02 145.980
SPROUT 24 Oct 13:09:46 13:13:35 32° 98° (E) 13:17:24 437.525
ESTCUBE 1 24 Oct 13:23:59 13:27:55 31° 286° (WNW) 13:31:51 437.505/2401.250
Gurwin Techsat 1B 24 Oct 13:31:01 13:34:28 18° 69° (ENE) 13:37:55 435.225
DX 1 24 Oct 13:47:53 13:48:48 11° 95° (E) 13:49:44 434.975-435.025
SRMSAT 24 Oct 13:52:50 13:56:37 17° 200° (SSW) 14:00:24 437.500
50 SAT 24 Oct 13:58:06 14:00:06 15° 97° (E) 14:02:06 437.505
Oscar 19 24 Oct 14:00:38 14:05:42 57° 75° (ENE) 14:10:44 437.125/150
VELOX 1 24 Oct 14:29:34 14:33:39 36° 286° (WNW) 14:37:43 145.980
BUGSAT 1 24 Oct 14:31:21 14:34:37 22° 263° (W) 14:37:56 437.445
SPROUT 24 Oct 14:46:55 14:49:08 14° 289° (WNW) 14:51:20 437.525
M-CUBED/EXP-1 PRIME 24 Oct 14:53:11 14:56:07 27° 256° (WSW) 14:58:58 437.505
Gurwin Techsat 1B 24 Oct 15:09:06 15:14:02 39° 260° (W) 15:18:59 435.225
DX 1 24 Oct 15:20:55 15:25:02 42° 286° (WNW) 15:29:10 434.975-435.025
50 SAT 24 Oct 15:30:14 15:32:11 15° 287° (WNW) 15:34:08 437.505
BEESAT 24 Oct 15:32:42 15:34:53 13° 96° (E) 15:37:02 436.000
UKube-1 24 Oct 15:35:03 15:39:13 47° 285° (WNW) 15:43:21 .
MOZHAYETS 4 24 Oct 15:43:01 15:46:26 21° 97° (E) 15:49:50
Oscar 19 24 Oct 15:44:07 15:45:10 11° 265° (W) 15:46:13 437.125/150
AO-7 24 Oct 15:46:09 15:54:15 60° 70° (ENE) 16:02:20 .
SO-50 24 Oct 16:01:39 16:06:18 77° 63° (ENE) 16:11:00 436.795
ITAMSAT 1 24 Oct 16:22:25 16:27:36 82° 77° (ENE) 16:32:49 435.822/435.867
nSIGHT-1 24 Oct 16:28:16 16:31:14 35° 45° (NE) 16:34:13 .
DOVE 4 24 Oct 16:55:35 16:57:38 13° 70° (ENE) 16:59:44 437.250
ITUPSAT 1 24 Oct 16:55:46 17:00:28 60° 285° (WNW) 17:05:08 437.325
BEESAT 24 Oct 17:08:14 17:12:41 41° 286° (WNW) 17:17:08 436.000
ISS 24 Oct 17:13:00 17:16:14 63° 230° (SW) 17:19:28 437.550
MOZHAYETS 4 24 Oct 17:19:47 17:23:25 24° 288° (WNW) 17:27:02
PCSat 24 Oct 17:37:06 17:42:22 51° 65° (ENE) 17:47:36 145.827
AO-7 24 Oct 17:41:16 17:47:11 21° 262° (W) 17:53:08 .
CUBESAT XI-V 24 Oct 17:42:41 17:47:16 73° 283° (WNW) 17:51:53 437.345
XW-2B 24 Oct 17:53:48 17:55:04 11° 71° (ENE) 17:56:18 145.730 - 145.750
KKS-1 24 Oct 18:11:33 18:15:57 55° 101° (E) 18:20:19 437.445
XW-2C 24 Oct 18:15:22 18:18:27 24° 74° (ENE) 18:21:32 145.795 - 145.815
HO-68 24 Oct 18:23:51 18:27:45 16° 64° (ENE) 18:31:38 435.675
STARS 24 Oct 18:30:58 18:34:57 32° 99° (E) 18:38:55 437.465
DOVE 4 24 Oct 18:31:17 18:34:58 31° 262° (W) 18:38:47 437.250
KAITUO 1B 24 Oct 18:45:08 18:48:42 44° 76° (ENE) 18:52:14 145.475/437.950
NUDT-PHONESAT 24 Oct 18:51:06 18:54:43 52° 77° (ENE) 18:58:19 437.300
XW-2F 24 Oct 18:55:06 18:58:52 90° 130° (SE) 19:02:38 145.980 - 146.000
CUTE-I 24 Oct 19:05:26 19:10:44 90° 326° (NW) 19:16:05 437.470
LilacSat-2 24 Oct 19:10:51 19:14:30 42° 260° (W) 19:18:08 437.200
XW-2D 24 Oct 19:11:36 19:15:13 43° 260° (W) 19:18:50 145.860 - 145.880
SEEDS 24 Oct 19:14:07 19:16:20 14° 71° (ENE) 19:18:32 437.485
CUTE 1.7 + AOD 2 24 Oct 19:15:04 19:18:36 26° 74° (ENE) 19:22:08 437.475
PCSat 24 Oct 19:22:42 19:25:14 13° 256° (WSW) 19:27:46 145.827
YUBILEINY 24 Oct 19:24:56 19:27:18 11° 71° (ENE) 19:29:40 435.215
XW-2B 24 Oct 19:25:33 19:28:53 29° 262° (W) 19:32:12 145.730 - 145.750
CUBEBUG 2 24 Oct 19:29:20 19:33:03 24° 72° (ENE) 19:36:50 437.445
XW-2C 24 Oct 19:50:37 19:52:32 13° 264° (W) 19:54:26 145.795 - 145.815
O/OREOS (USA 219) 24 Oct 19:52:17 19:56:43 58° 105° (ESE) 20:01:12 437.305
UWE-3 24 Oct 19:56:57 20:00:52 27° 73° (ENE) 20:04:48 435.000/436.395/437.385
HO-68 24 Oct 20:07:33 20:14:41 72° 256° (WSW) 20:21:51 435.675
STARS 24 Oct 20:08:27 20:10:56 15° 290° (WNW) 20:13:25 437.465
STRAND 1 24 Oct 20:29:37 20:34:41 58° 101° (E) 20:39:43 437.568
AO-73 24 Oct 20:34:16 20:38:20 33° 74° (ENE) 20:42:25 145.935
BEESAT 3 24 Oct 20:35:54 20:39:03 23° 59° (ENE) 20:42:08 437.485
XW-2A 24 Oct 20:41:53 20:45:14 56° 259° (W) 20:48:35 145.665 - 145.685
SEEDS 24 Oct 20:48:03 20:51:42 29° 262° (W) 20:55:20 437.485
CUTE 1.7 + AOD 2 24 Oct 20:51:45 20:54:20 16° 264° (W) 20:56:53 437.475
AAUSAT CUBESAT 2 24 Oct 20:56:25 21:00:27 61° 260° (W) 21:04:30 437.432
FO-29 24 Oct 20:56:42 21:02:23 23° 97° (E) 21:08:13 435.910
ZACube-1 24 Oct 20:58:49 21:03:23 80° 78° (ENE) 21:07:59 437.345
CUBEBUG 2 24 Oct 21:05:50 21:09:28 23° 264° (W) 21:13:10 437.445
YUBILEINY 24 Oct 21:16:08 21:25:00 87° 86° (E) 21:33:51 435.215
AO-85 24 Oct 21:23:38 21:26:54 18° 58° (ENE) 21:30:18 145.980
Oscar 11 24 Oct 21:27:07 21:31:27 80° 260° (W) 21:35:47 .
Max Valier Satellite 24 Oct 21:33:33 21:34:19 11° 71° (ENE) 21:35:05 145.860
UWE-3 24 Oct 21:33:52 21:37:11 19° 264° (W) 21:40:31 435.000/436.395/437.385
DELFI C3 24 Oct 21:39:23 21:42:20 21° 73° (ENE) 21:45:17 145.870
BEESAT 2 24 Oct 22:07:41 22:11:42 86° 69° (ENE) 22:15:37 435.950
STRAND 1 24 Oct 22:11:41 22:13:17 11° 293° (WNW) 22:14:52 437.568
AO-73 24 Oct 22:11:52 22:14:31 15° 265° (W) 22:17:10 145.935
BEESAT 3 24 Oct 22:13:50 22:16:19 16° 251° (WSW) 22:18:48 437.485
RS-15 24 Oct 22:30:47 22:39:10 22° 102° (ESE) 22:47:37 29.354- 29.394
FO-29 24 Oct 22:40:10 22:47:22 56° 286° (WNW) 22:54:58 435.910
EO-88 24 Oct 22:42:41 22:46:19 81° 78° (ENE) 22:49:58 145.990 - 145.960
UNISAT 6 24 Oct 22:54:59 22:59:27 61° 100° (E) 23:03:46 437.425
AO-85 24 Oct 23:02:51 23:07:20 38° 248° (WSW) 23:12:04 145.980
Max Valier Satellite 24 Oct 23:04:28 23:07:46 30° 262° (W) 23:11:04 145.860
TIGRISAT 24 Oct 23:08:19 23:12:49 83° 101° (E) 23:17:12 435.000
DELFI C3 24 Oct 23:14:24 23:16:55 17° 264° (W) 23:19:28 145.870
LO-87 24 Oct 23:17:00 23:19:36 19° 73° (ENE) 23:22:13 145.935 - 145.965
YUBILEINY 24 Oct 23:17:28 23:20:36 12° 278° (W) 23:23:45 435.215
PRISM 25 Oct 00:03:07 00:07:04 45° 285° (WNW) 00:11:02 437.425
AIST 2D 25 Oct 00:12:01 00:15:20 44° 99° (E) 00:18:39 435.315
ESTCUBE 1 25 Oct 00:14:24 00:18:53 86° 75° (ENE) 00:23:22 437.505/2401.250
EO-79 25 Oct 00:25:57 00:29:04 20° 97° (E) 00:32:10 145.935-145.965
POLYITAN 1 25 Oct 00:31:53 00:35:19 24° 97° (E) 00:38:42 437.675
NO-84 25 Oct 00:37:20 00:40:57 29° 122° (ESE) 00:44:39 435.350 FM
RS-15 25 Oct 00:38:13 00:50:24 77° 296° (WNW) 01:02:48 29.354- 29.394
NANOSAT C BR1 25 Oct 00:50:01 00:53:55 36° 99° (E) 00:57:47 145.865
LO-87 25 Oct 00:50:45 00:52:51 15° 264° (W) 00:54:58 145.935 - 145.965
QB50P2 25 Oct 00:51:57 00:56:05 51° 100° (E) 01:00:11 145.880/145.840
DUCHIFAT 1 25 Oct 00:57:45 01:01:42 39° 99° (E) 01:05:36 145.980
VELOX 1 25 Oct 01:17:56 01:22:15 67° 76° (ENE) 01:26:36 145.980
SPROUT 25 Oct 01:29:45 01:33:54 51° 260° (W) 01:38:05 437.525
